COSMOS 737

Satellite information

Favourite Embed

Satellite Type and Status

PAYLOADIN ORBIT

Key statistics

Satellite COSMOS 737 at a glance.

Uptime

18304

Days in orbit

Revolutions

≈ 12.4

Per day

Orbit

LEO

Low Earth Orbit

Inclination

74.0

Latest

Satellite identification and parameters

Extended collection of information and parameters for COSMOS 737.

Object identification

Identified? True

Debris? False

Object name: COSMOS 737

International designator: 1975-045F

Object number (NORAD): 7826

Object ID (CCSDS): 7826

Country: COMMONWEALTH OF INDEPENDENT STATES (CIS)

Current information (Y/N): Y

RCS size: MEDIUM

Orbital parameters

Period: 115.966 minutes

Inclination: 74.0176 deg

SMA: 7877.377 km

Apoapsis: 1528.744 km

Periapsis: 1469.741 km

RAAN: 56.3464 deg

Eccentricy: 0.0037451

Argument of periapsis: 205.6542 deg

Mean anomaly: 231.3757 deg

Mean motion: 12.41738966 rev/day

Mean motion (dot): -0.00000004 rev/day2

B* drag term: 0.000083045 1/REarth

Two-line elements (TLE)

Creation date: July 8, 2025, 2:27 a.m.

Reference frame: TEME

Reference center: EARTH

Epoch: July 7, 2025, 7:29 p.m. UTC

TLE line 0: 0 COSMOS 737

TLE line 1: 1 07826U 75045F 25188.81199978 -.00000004 00000-0 83045-4 0 9999

TLE line 2: 2 07826 74.0176 56.3464 0037451 205.6542 231.3757 12.41738966271591

Live tracking on map

Real-time ground track for satellite COSMOS 737.

In-orbit conjunctions

There are no conjunctions computed for COSMOS 737, at the moment. Check back to stay up to date, as we update our databases every day.

Go to all conjunctions

Associated space launch

Military communications satellites

COSMOS 737 was lifted into orbit during the mission ‘Kosmos-3M | Strela-1M 89-96’, on board a Kosmos-3M space rocket.

The launch took place on May 28, 1975, 12:25 a.m. from 132/1 (132L).

For more information about the launch, click the button.

Launch to space Kosmos-3M | Strela-1M 89-96
Kosmos-3M | Strela-1M 89-96

Agency: N/A

Status: Launch Successful

Launch date: May 28, 1975, 12:25 a.m. UTC

Rocket: Kosmos-3M

Launch pad: 132/1 (132L)

Location: Plesetsk Cosmodrome, Russian Federation

...

Latest news about this satellite

There are no fresh news available about this satellite. Check back as we update our databases every day.


Newsletter sign-up

Weekly statistics, charts and insights to help you stay on top of the space industry.